,,PA_Meas_PMT16A,,PR_Meas_QMR101_102,,RH_Meas_QMH101,,SR_Meas_QMS101,,TA_Meas_QMH101,,GenWind,,GenWind,
time,status,PA,status,PR,status,RH,status,SR,status,TA,status,DirAvg,status,SpdAvg,
2013-12-11, 00:00:04,VALID,916.246,VALID,0,VALID,96.5048,VALID,0,VALID,19.8588,VALID,33,VALID,0,
2013-12-11, 00:01:04,VALID,916.234,VALID,0,VALID,96.5353,VALID,0,VALID,19.8588,VALID,23,VALID,0,
2013-12-11, 00:02:04,VALID,916.221,VALID,0,VALID,96.5658,VALID,0,VALID,19.9188,VALID,9,VALID,0,
2013-12-11, 00:03:04,VALID,916.24,VALID,0,VALID,96.6192,VALID,0,VALID,19.8978,VALID,8,VALID,0,
2013-12-11, 00:04:04,VALID,916.209,VALID,0,VALID,96.6344,VALID,0.107441,VALID,19.9383,VALID,8,VALID,0,
2013-12-11, 00:05:04,VALID,916.206,VALID,0,VALID,96.6573,VALID,0,VALID,19.9383,VALID,8,VALID,0,
2013-12-11, 00:06:04,VALID,916.215,VALID,0,VALID,96.6878,VALID,0,VALID,19.9188,VALID,8,VALID,0,
2013-12-11, 00:07:04,VALID,916.195,VALID,0,VALID,96.6954,VALID,0,VALID,19.9188,VALID,8,VALID,0,
2013-12-11, 00:08:04,VALID,916.18,VALID,0,VALID,96.703,VALID,0,VALID,19.9188,VALID,8,VALID,0,
2013-12-11, 00:09:04,VALID,916.209,VALID,0,VALID,96.703,VALID,0,VALID,19.8978,VALID,8,VALID,0,
2013-12-11, 00:10:04,VALID,916.238,VALID,0,VALID,96.7335,VALID,0,VALID,19.8588,VALID,8,VALID,0,
2013-12-11, 00:11:04,VALID,916.227,VALID,0,VALID,96.7335,VALID,0,VALID,19.8603,VALID,8,VALID,0,
2013-12-11, 00:12:04,VALID,916.205,VALID,0,VALID,96.7335,VALID,0.107441,VALID,19.8603,VALID,8,VALID,0,
2013-12-11, 00:13:04,VALID,916.253,VALID,0,VALID,96.764,VALID,0,VALID,19.8798,VALID,8,VALID,0,
2013-12-11, 00:14:04,VALID,916.192,VALID,0,VALID,96.7869,VALID,0,VALID,19.8993,VALID,8,VALID,0,
2013-12-11, 00:15:04,VALID,916.206,VALID,0,VALID,96.8098,VALID,0,VALID,19.9383,VALID,8,VALID,0,
2013-12-11, 00:16:04,VALID,916.179,VALID,0,VALID,96.8174,VALID,0,VALID,19.8978,VALID,15,VALID,0,
2013-12-11, 00:17:04,VALID,916.166,VALID,0,VALID,96.8174,VALID,0,VALID,19.8993,VALID,16,VALID,0,
2013-12-11, 00:18:04,VALID,916.175,VALID,0,VALID,96.8174,VALID,0,VALID,19.8393,VALID,8,VALID,0,
2013-12-11, 00:19:04,VALID,916.164,VALID,0,VALID,96.8403,VALID,0,VALID,19.8783,VALID,8,VALID,0,
2013-12-11, 00:20:04,VALID,916.145,VALID,0,VALID,96.8403,VALID,0,VALID,19.8798,VALID,10,VALID,0,
2013-12-11, 00:21:04,VALID,916.125,VALID,0,VALID,96.8707,VALID,0,VALID,19.9188,VALID,11,VALID,0,
2013-12-11, 00:22:04,VALID,916.138,VALID,0,VALID,96.8631,VALID,0.107441,VALID,19.9173,VALID,9,VALID,0,
2013-12-11, 00:23:04,VALID,916.104,VALID,0,VALID,96.886,VALID,0,VALID,19.9173,VALID,9,VALID,0,
2013-12-11, 00:24:04,VALID,916.091,VALID,0,VALID,96.886,VALID,0,VALID,19.9173,VALID,11,VALID,0,
2013-12-11, 00:25:04,VALID,916.063,VALID,0,VALID,96.886,VALID,0,VALID,19.8993,VALID,356,VALID,0,
2013-12-11, 00:26:04,VALID,916.055,VALID,0,VALID,96.9012,VALID,0,VALID,19.9188,VALID,356,VALID,0,
2013-12-11, 00:27:04,VALID,916.06,VALID,0,VALID,96.8936,VALID,0,VALID,19.8783,VALID,340,VALID,0,
2013-12-11, 00:28:04,VALID,916.02,VALID,0,VALID,96.9089,VALID,0,VALID,19.8993,VALID,349,VALID,0,
2013-12-11, 00:29:04,VALID,916.005,VALID,0,VALID,96.9012,VALID,0,VALID,19.8783,VALID,349,VALID,0,
2013-12-11, 00:30:04,VALID,916.024,VALID,0,VALID,96.9394,VALID,0,VALID,19.9188,VALID,14,VALID,0,
2013-12-11, 00:31:04,VALID,916.016,VALID,0,VALID,96.9241,VALID,0,VALID,19.9173,VALID,15,VALID,0,
2013-12-11, 00:32:04,VALID,916.026,VALID,0,VALID,96.947,VALID,0,VALID,19.9173,VALID,14,VALID,0,
2013-12-11, 00:33:04,VALID,916.032,VALID,0,VALID,96.9317,VALID,0,VALID,19.9563,VALID,15,VALID,0,
2013-12-11, 00:34:04,VALID,916.011,VALID,0,VALID,96.9317,VALID,0,VALID,20.0358,VALID,14,VALID,0,
2013-12-11, 00:35:04,VALID,915.986,VALID,0,VALID,96.9394,VALID,0,VALID,20.0343,VALID,14,VALID,0,
2013-12-11, 00:36:04,VALID,915.994,VALID,0,VALID,96.9622,VALID,0,VALID,20.0343,VALID,14,VALID,0,
2013-12-11, 00:37:04,VALID,916.004,VALID,0,VALID,96.9775,VALID,0,VALID,20.0538,VALID,14,VALID,0,
2013-12-11, 00:38:04,VALID,915.989,VALID,0,VALID,96.9775,VALID,0,VALID,20.0148,VALID,15,VALID,0,
2013-12-11, 00:39:04,VALID,915.998,VALID,0,VALID,96.9851,VALID,0,VALID,20.0944,VALID,14,VALID,0,
2013-12-11, 00:40:04,VALID,915.966,VALID,0,VALID,96.9775,VALID,0,VALID,20.0733,VALID,14,VALID,0,
2013-12-11, 00:41:04,VALID,915.964,VALID,0,VALID,96.9775,VALID,0,VALID,20.0944,VALID,15,VALID,0,
2013-12-11, 00:42:04,VALID,915.967,VALID,0,VALID,96.9775,VALID,0,VALID,19.9953,VALID,14,VALID,0,
2013-12-11, 00:43:04,VALID,915.965,VALID,0,VALID,96.9851,VALID,0,VALID,19.9383,VALID,14,VALID,0,
2013-12-11, 00:44:04,VALID,915.932,VALID,0,VALID,96.9851,VALID,0,VALID,19.9578,VALID,14,VALID,0,
2013-12-11, 00:45:04,VALID,915.929,VALID,0,VALID,96.9775,VALID,0,VALID,19.9383,VALID,15,VALID,0,
2013-12-11, 00:46:04,VALID,915.907,VALID,0,VALID,96.9851,VALID,0,VALID,19.9968,VALID,14,VALID,0,
2013-12-11, 00:47:04,VALID,915.885,VALID,0,VALID,97.0003,VALID,0,VALID,19.9968,VALID,14,VALID,0,
2013-12-11, 00:48:04,VALID,915.843,VALID,0,VALID,97.008,VALID,0,VALID,19.9968,VALID,14,VALID,0,
2013-12-11, 00:49:04,VALID,915.835,VALID,0,VALID,97.0156,VALID,0,VALID,19.9383,VALID,14,VALID,0,
2013-12-11, 00:50:04,VALID,915.806,VALID,0,VALID,97.0003,VALID,0,VALID,19.8978,VALID,14,VALID,0,
2013-12-11, 00:51:04,VALID,915.815,VALID,0,VALID,97.008,VALID,0,VALID,19.9188,VALID,14,VALID,0,
2013-12-11, 00:52:04,VALID,915.787,VALID,0,VALID,97.008,VALID,0,VALID,19.9383,VALID,347,VALID,0,
2013-12-11, 00:53:04,VALID,915.791,VALID,0,VALID,97.0385,VALID,0,VALID,19.9188,VALID,347,VALID,0,
2013-12-11, 00:54:04,VALID,915.761,VALID,0,VALID,97.0232,VALID,0,VALID,19.8978,INVALID,360,VALID,0,
2013-12-11, 00:55:04,VALID,915.74,VALID,0,VALID,97.0461,VALID,0,VALID,19.9188,INVALID,360,VALID,0,
2013-12-11, 00:56:04,VALID,915.744,VALID,0,VALID,97.0308,VALID,0,VALID,19.9173,INVALID,360,VALID,0,
2013-12-11, 00:57:04,VALID,915.704,VALID,0,VALID,97.0308,VALID,0,VALID,19.9383,VALID,347,VALID,0,
2013-12-11, 00:58:04,VALID,915.696,VALID,0.2,VALID,97.0537,VALID,0,VALID,19.9773,VALID,347,VALID,0,
2013-12-11, 00:59:04,VALID,915.674,VALID,0,VALID,97.0385,VALID,0,VALID,19.9968,VALID,347,VALID,0,
2013-12-11, 01:00:04,VALID,915.666,VALID,0,VALID,97.0613,VALID,0,VALID,19.9578,VALID,347,VALID,0,
2013-12-11, 01:01:04,VALID,915.657,VALID,0,VALID,97.0461,VALID,0,VALID,19.9773,VALID,347,VALID,0,
2013-12-11, 01:02:04,VALID,915.637,VALID,0,VALID,97.0308,VALID,0,VALID,20.0179,INVALID,360,VALID,0,
2013-12-11, 01:03:04,VALID,915.604,VALID,0,VALID,97.0537,VALID,0,VALID,20.0163,VALID,348,VALID,0,
2013-12-11, 01:04:04,VALID,915.607,VALID,0,VALID,97.0613,VALID,0,VALID,20.0553,VALID,2,VALID,0,
2013-12-11, 01:05:04,VALID,915.585,VALID,0,VALID,97.0537,VALID,0,VALID,20.0358,VALID,6,VALID,0,
2013-12-11, 01:06:04,VALID,915.558,VALID,0,VALID,97.0537,VALID,0,VALID,20.0343,VALID,6,VALID,0,
2013-12-11, 01:07:04,VALID,915.55,VALID,0,VALID,97.0537,VALID,0,VALID,20.0928,VALID,6,VALID,0,
2013-12-11, 01:08:04,VALID,915.509,VALID,0,VALID,97.0613,VALID,0,VALID,20.0749,VALID,6,VALID,0,
2013-12-11, 01:09:04,VALID,915.521,VALID,0,VALID,97.069,VALID,0,VALID,20.0749,VALID,6,VALID,0,
2013-12-11, 01:10:04,VALID,915.511,VALID,0,VALID,97.0766,VALID,0,VALID,20.0553,VALID,6,VALID,0,
2013-12-11, 01:11:04,VALID,915.508,VALID,0,VALID,97.069,VALID,0,VALID,19.9953,VALID,18,VALID,0,
2013-12-11, 01:12:04,VALID,915.514,VALID,0,VALID,97.069,VALID,0,VALID,20.0343,VALID,18,VALID,0,
2013-12-11, 01:13:04,VALID,915.526,VALID,0,VALID,97.069,VALID,0,VALID,20.0749,VALID,18,VALID,0,
2013-12-11, 01:14:04,VALID,915.526,VALID,0,VALID,97.0766,VALID,0,VALID,20.0733,VALID,18,VALID,0,
2013-12-11, 01:15:04,VALID,915.54,VALID,0,VALID,97.0842,VALID,0,VALID,20.0944,VALID,18,VALID,0,
2013-12-11, 01:16:04,VALID,915.517,VALID,0,VALID,97.0766,VALID,0,VALID,20.0733,VALID,18,VALID,0,
2013-12-11, 01:17:04,VALID,915.516,VALID,0,VALID,97.0842,VALID,0,VALID,20.0928,VALID,357,VALID,0,
2013-12-11, 01:18:04,VALID,915.52,VALID,0,VALID,97.0842,VALID,0,VALID,20.0733,VALID,14,VALID,0,
2013-12-11, 01:19:04,VALID,915.513,VALID,0,VALID,97.1071,VALID,0,VALID,20.0163,VALID,14,VALID,0,
2013-12-11, 01:20:04,VALID,915.513,VALID,0,VALID,97.0918,VALID,0,VALID,20.0163,VALID,18,VALID,0,
2013-12-11, 01:21:04,VALID,915.475,VALID,0,VALID,97.0842,VALID,0,VALID,20.0148,VALID,18,VALID,0,
2013-12-11, 01:22:04,VALID,915.508,VALID,0,VALID,97.0918,VALID,0,VALID,19.9953,VALID,13,VALID,0,
2013-12-11, 01:23:04,VALID,915.467,VALID,0,VALID,97.0842,VALID,0,VALID,19.9563,VALID,16,VALID,0,
2013-12-11, 01:24:04,VALID,915.501,VALID,0,VALID,97.0918,VALID,0,VALID,19.9773,VALID,6,VALID,0,
2013-12-11, 01:25:04,VALID,915.485,VALID,0,VALID,97.0766,VALID,0,VALID,19.9773,VALID,3,VALID,0,
2013-12-11, 01:26:04,VALID,915.443,VALID,0,VALID,97.1071,VALID,0,VALID,20.0163,VALID,25,VALID,0,
2013-12-11, 01:27:04,VALID,915.461,VALID,0,VALID,97.1147,VALID,0,VALID,19.9968,VALID,353,VALID,0,
2013-12-11, 01:28:04,VALID,915.439,VALID,0,VALID,97.0994,VALID,0,VALID,19.9968,VALID,32,VALID,0,
2013-12-11, 01:29:04,VALID,915.426,VALID,0,VALID,97.0994,VALID,0.107441,VALID,19.9953,VALID,21,VALID,0,
2013-12-11, 01:30:04,VALID,915.43,VALID,0,VALID,97.1071,VALID,0.107441,VALID,19.9563,VALID,16,VALID,0,
2013-12-11, 01:31:04,VALID,915.375,VALID,0,VALID,97.0994,VALID,0,VALID,19.9758,VALID,16,VALID,0,
2013-12-11, 01:32:04,VALID,915.379,VALID,0,VALID,97.1223,VALID,0,VALID,19.9758,VALID,16,VALID,0,
2013-12-11, 01:33:04,VALID,915.384,VALID,0,VALID,97.1071,VALID,0,VALID,19.9953,VALID,16,VALID,0,
2013-12-11, 01:34:04,VALID,915.334,VALID,0,VALID,97.1147,VALID,0.107441,VALID,19.9758,VALID,16,VALID,0,
2013-12-11, 01:35:04,VALID,915.323,VALID,0,VALID,97.1299,VALID,0,VALID,19.9953,VALID,11,VALID,0,
2013-12-11, 01:36:04,VALID,915.345,VALID,0,VALID,97.1147,VALID,0.107441,VALID,19.9953,VALID,25,VALID,0,
2013-12-11, 01:37:04,VALID,915.312,VALID,0,VALID,97.1147,VALID,0.107441,VALID,20.0148,VALID,22,VALID,0,
2013-12-11, 01:38:04,VALID,915.323,VALID,0.2,VALID,97.1223,VALID,0,VALID,19.9953,VALID,330,VALID,0,
2013-12-11, 01:39:04,VALID,915.291,VALID,0,VALID,97.1223,VALID,0.107441,VALID,19.9368,VALID,284,VALID,0,
2013-12-11, 01:40:04,VALID,915.289,VALID,0,VALID,97.1299,VALID,0.107441,VALID,19.9368,VALID,348,VALID,0,
2013-12-11, 01:41:04,VALID,915.3,VALID,0,VALID,97.1452,VALID,0,VALID,19.9578,VALID,22,VALID,0,
2013-12-11, 01:42:04,VALID,915.241,VALID,0,VALID,97.1376,VALID,0,VALID,19.9773,VALID,7,VALID,0,
2013-12-11, 01:43:04,VALID,915.271,VALID,0,VALID,97.1376,VALID,0,VALID,19.9188,VALID,19,VALID,0,
2013-12-11, 01:44:04,VALID,915.242,VALID,0,VALID,97.1299,VALID,0,VALID,19.9578,VALID,32,VALID,0,
2013-12-11, 01:45:04,VALID,915.253,VALID,0,VALID,97.1452,VALID,0,VALID,19.9383,VALID,24,VALID,0,
2013-12-11, 01:46:04,VALID,915.255,VALID,0,VALID,97.1528,VALID,0,VALID,19.8798,VALID,14,VALID,0,
2013-12-11, 01:47:04,VALID,915.258,VALID,0,VALID,97.1376,VALID,0,VALID,19.9188,VALID,4,VALID,0,
2013-12-11, 01:48:04,VALID,915.238,VALID,0,VALID,97.1604,VALID,0,VALID,19.8603,INVALID,360,VALID,0,
2013-12-11, 01:49:04,VALID,915.285,VALID,0,VALID,97.1452,VALID,0,VALID,19.8423,VALID,352,VALID,0,
2013-12-11, 01:50:04,VALID,915.283,VALID,0,VALID,97.1528,VALID,0,VALID,19.8213,VALID,7,VALID,0,
2013-12-11, 01:51:04,VALID,915.259,VALID,0,VALID,97.1604,VALID,0,VALID,19.8408,VALID,12,VALID,0,
2013-12-11, 01:52:04,VALID,915.274,VALID,0,VALID,97.1681,VALID,0,VALID,19.8198,VALID,4,VALID,0,
2013-12-11, 01:53:04,VALID,915.278,VALID,0,VALID,97.1681,VALID,0,VALID,19.8198,VALID,10,VALID,0,
2013-12-11, 01:54:04,VALID,915.275,VALID,0,VALID,97.1452,VALID,0,VALID,19.8408,VALID,16,VALID,0,
2013-12-11, 01:55:04,VALID,915.262,VALID,0,VALID,97.1604,VALID,0,VALID,19.8603,VALID,333,VALID,0,
2013-12-11, 01:56:04,VALID,915.281,VALID,0,VALID,97.1452,VALID,0,VALID,19.8603,VALID,15,VALID,0,
2013-12-11, 01:57:04,VALID,915.262,VALID,0,VALID,97.1681,VALID,0,VALID,19.9188,VALID,22,VALID,0,
2013-12-11, 01:58:04,VALID,915.28,VALID,0,VALID,97.1757,VALID,0,VALID,19.8798,VALID,32,VALID,0,
2013-12-11, 01:59:04,VALID,915.258,VALID,0,VALID,97.1681,VALID,0,VALID,19.8798,VALID,23,VALID,0,
2013-12-11, 02:00:04,VALID,915.29,VALID,0,VALID,97.1604,VALID,0,VALID,19.8603,VALID,22,VALID,0,
2013-12-11, 02:01:04,VALID,915.291,VALID,0,VALID,97.1833,VALID,0,VALID,19.8213,VALID,21,VALID,0,
2013-12-11, 02:02:04,VALID,915.289,VALID,0,VALID,97.1681,VALID,0,VALID,19.8018,VALID,16,VALID,0,
2013-12-11, 02:03:04,VALID,915.266,VALID,0,VALID,97.1757,VALID,0,VALID,19.8213,VALID,10,VALID,0,
2013-12-11, 02:04:04,VALID,915.282,VALID,0,VALID,97.1909,VALID,0,VALID,19.8018,VALID,23,VALID,0,
2013-12-11, 02:05:04,VALID,915.317,VALID,0,VALID,97.1833,VALID,0,VALID,19.8408,VALID,14,VALID,0,
2013-12-11, 02:06:04,VALID,915.31,VALID,0,VALID,97.1833,VALID,0,VALID,19.8393,VALID,15,VALID,0,
2013-12-11, 02:07:04,VALID,915.307,VALID,0,VALID,97.1604,VALID,0,VALID,19.8408,VALID,18,VALID,0,
2013-12-11, 02:08:04,VALID,915.334,VALID,0,VALID,97.1681,VALID,0,VALID,19.7808,VALID,15,VALID,0,
2013-12-11, 02:09:04,VALID,915.346,VALID,0,VALID,97.1986,VALID,0,VALID,19.7823,VALID,23,VALID,0,
2013-12-11, 02:10:04,VALID,915.339,VALID,0,VALID,97.1909,VALID,0,VALID,19.8018,VALID,9,VALID,0,
2013-12-11, 02:11:04,VALID,915.345,VALID,0,VALID,97.2214,VALID,0,VALID,19.7613,VALID,10,VALID,0,
2013-12-11, 02:12:04,VALID,915.336,VALID,0,VALID,97.1909,VALID,0,VALID,19.7418,VALID,13,VALID,0,
2013-12-11, 02:13:04,VALID,915.325,VALID,0,VALID,97.1986,VALID,0,VALID,19.7823,VALID,15,VALID,0,
2013-12-11, 02:14:04,VALID,915.339,VALID,0,VALID,97.1909,VALID,0,VALID,19.8408,VALID,15,VALID,0,
2013-12-11, 02:15:04,VALID,915.323,VALID,0,VALID,97.1909,VALID,0,VALID,19.8798,VALID,15,VALID,0,
2013-12-11, 02:16:04,VALID,915.326,VALID,0,VALID,97.1833,VALID,0,VALID,19.8783,VALID,15,VALID,0,
2013-12-11, 02:17:04,VALID,915.345,VALID,0,VALID,97.1909,VALID,0,VALID,19.8603,VALID,12,VALID,0,
2013-12-11, 02:18:04,VALID,915.313,VALID,0,VALID,97.2062,VALID,0,VALID,19.8603,VALID,348,VALID,0,
2013-12-11, 02:19:04,VALID,915.327,VALID,0,VALID,97.2062,VALID,0,VALID,19.8408,VALID,13,VALID,0,
2013-12-11, 02:20:04,VALID,915.339,VALID,0,VALID,97.2062,VALID,0,VALID,19.7823,VALID,354,VALID,0,
2013-12-11, 02:21:04,VALID,915.331,VALID,0,VALID,97.1986,VALID,0,VALID,19.8018,VALID,354,VALID,0,
2013-12-11, 02:22:04,VALID,915.333,VALID,0,VALID,97.1986,VALID,0,VALID,19.7823,VALID,354,VALID,0,
2013-12-11, 02:23:04,VALID,915.302,VALID,0,VALID,97.2062,VALID,0,VALID,19.7613,VALID,354,VALID,0,
2013-12-11, 02:24:04,VALID,915.318,VALID,0,VALID,97.1909,VALID,0,VALID,19.8018,VALID,5,VALID,0,
2013-12-11, 02:25:04,VALID,915.266,VALID,0,VALID,97.2214,VALID,0,VALID,19.7808,VALID,5,VALID,0,
2013-12-11, 02:26:04,VALID,915.291,VALID,0,VALID,97.2138,VALID,0,VALID,19.7823,VALID,360,VALID,0,
2013-12-11, 02:27:04,VALID,915.253,VALID,0,VALID,97.229,VALID,0,VALID,19.7418,VALID,15,VALID,0,
2013-12-11, 02:28:04,VALID,915.288,VALID,0,VALID,97.2062,VALID,0,VALID,19.7823,VALID,6,VALID,0,
2013-12-11, 02:29:04,VALID,915.257,VALID,0,VALID,97.229,VALID,0,VALID,19.7433,VALID,283,VALID,0,
2013-12-11, 02:30:04,VALID,915.293,VALID,0,VALID,97.229,VALID,0,VALID,19.7223,VALID,283,VALID,0,
2013-12-11, 02:31:04,VALID,915.284,VALID,0,VALID,97.2214,VALID,0,VALID,19.7238,VALID,331,VALID,0,
2013-12-11, 02:32:04,VALID,915.281,VALID,0,VALID,97.2367,VALID,0,VALID,19.7238,VALID,338,VALID,0,
2013-12-11, 02:33:04,VALID,915.283,VALID,0,VALID,97.2214,VALID,0,VALID,19.7238,VALID,33,VALID,0,
2013-12-11, 02:34:04,VALID,915.261,VALID,0,VALID,97.2367,VALID,0,VALID,19.7418,VALID,23,VALID,0,
2013-12-11, 02:35:04,VALID,915.242,VALID,0,VALID,97.2214,VALID,0,VALID,19.7433,VALID,5,VALID,0,
2013-12-11, 02:36:04,VALID,915.223,VALID,0,VALID,97.2367,VALID,0,VALID,19.7028,VALID,332,VALID,0,
2013-12-11, 02:37:04,VALID,915.257,VALID,0,VALID,97.2367,VALID,0,VALID,19.7043,VALID,11,VALID,0,
2013-12-11, 02:38:04,VALID,915.242,VALID,0,VALID,97.2367,VALID,0,VALID,19.6443,VALID,12,VALID,0,
2013-12-11, 02:39:04,VALID,915.233,VALID,0,VALID,97.229,VALID,0,VALID,19.6653,VALID,7,VALID,0,
2013-12-11, 02:40:04,VALID,915.216,VALID,0,VALID,97.2595,VALID,0,VALID,19.6263,VALID,32,VALID,0,
2013-12-11, 02:41:04,VALID,915.238,VALID,0,VALID,97.2367,VALID,0,VALID,19.6263,VALID,10,VALID,0,
2013-12-11, 02:42:04,VALID,915.211,VALID,0,VALID,97.2443,VALID,0,VALID,19.5678,VALID,15,VALID,0,
2013-12-11, 02:43:04,VALID,915.199,VALID,0,VALID,97.2519,VALID,0,VALID,19.5273,VALID,8,VALID,0,
2013-12-11, 02:44:04,VALID,915.223,VALID,0,VALID,97.2519,VALID,0,VALID,19.5663,VALID,30,VALID,0,
2013-12-11, 02:45:04,VALID,915.204,VALID,0,VALID,97.2519,VALID,0,VALID,19.5663,VALID,17,VALID,0,
2013-12-11, 02:46:04,VALID,915.229,VALID,0,VALID,97.229,VALID,0,VALID,19.5873,VALID,18,VALID,0,
2013-12-11, 02:47:04,VALID,915.194,VALID,0,VALID,97.2519,VALID,0,VALID,19.6068,VALID,14,VALID,0,
2013-12-11, 02:48:04,VALID,915.18,VALID,0,VALID,97.2443,VALID,0,VALID,19.5663,VALID,27,VALID,0,
2013-12-11, 02:49:04,VALID,915.196,VALID,0,VALID,97.2367,VALID,0,VALID,19.5663,VALID,28,VALID,0,
2013-12-11, 02:50:04,VALID,915.159,VALID,0,VALID,97.2595,VALID,0,VALID,19.5873,VALID,8,VALID,0,
2013-12-11, 02:51:04,VALID,915.175,VALID,0.2,VALID,97.2443,VALID,0,VALID,19.6068,VALID,8,VALID,0,
2013-12-11, 02:52:04,VALID,915.141,VALID,0,VALID,97.2595,VALID,0,VALID,19.6068,VALID,5,VALID,0,
2013-12-11, 02:53:04,VALID,915.139,VALID,0,VALID,97.2748,VALID,0,VALID,19.5288,VALID,312,VALID,0,
2013-12-11, 02:54:04,VALID,915.11,VALID,0,VALID,97.2595,VALID,0,VALID,19.4898,VALID,3,VALID,0,
2013-12-11, 02:55:04,VALID,915.076,VALID,0,VALID,97.2595,VALID,0,VALID,19.5093,VALID,29,VALID,0,
2013-12-11, 02:56:04,VALID,915.103,VALID,0,VALID,97.2595,VALID,0,VALID,19.5093,VALID,17,VALID,0,
2013-12-11, 02:57:04,VALID,915.036,VALID,0.2,VALID,97.2748,VALID,0,VALID,19.5093,VALID,22,VALID,0,
2013-12-11, 02:58:04,VALID,915.026,VALID,0,VALID,97.2748,VALID,0,VALID,19.5093,VALID,19,VALID,0,
2013-12-11, 02:59:04,VALID,915.027,VALID,0,VALID,97.2672,VALID,0,VALID,19.5288,VALID,15,VALID,0,
2013-12-11, 03:00:04,VALID,915.019,VALID,0,VALID,97.2824,VALID,0,VALID,19.4703,VALID,14,VALID,0,
2013-12-11, 03:01:04,VALID,915.024,VALID,0,VALID,97.29,VALID,0,VALID,19.4313,VALID,8,VALID,0,
2013-12-11, 03:02:04,VALID,915.037,VALID,0,VALID,97.2748,VALID,0,VALID,19.4313,VALID,4,VALID,0,
2013-12-11, 03:03:04,VALID,915.042,VALID,0,VALID,97.2748,VALID,0,VALID,19.4313,VALID,342,VALID,0,
2013-12-11, 03:04:04,VALID,915.029,VALID,0,VALID,97.2824,VALID,0,VALID,19.4118,VALID,11,VALID,0,
2013-12-11, 03:05:04,VALID,915.015,VALID,0,VALID,97.2748,VALID,0,VALID,19.4508,VALID,26,VALID,0,
2013-12-11, 03:06:04,VALID,915.043,VALID,0.2,VALID,97.29,VALID,0,VALID,19.4313,VALID,10,VALID,0,
2013-12-11, 03:07:04,VALID,915.049,VALID,0,VALID,97.2977,VALID,0,VALID,19.4118,VALID,17,VALID,0,
2013-12-11, 03:08:04,VALID,915.075,VALID,0,VALID,97.2824,VALID,0,VALID,19.4118,VALID,7,VALID,0,
2013-12-11, 03:09:04,VALID,915.03,VALID,0,VALID,97.2977,VALID,0,VALID,19.4118,VALID,347,VALID,0,
2013-12-11, 03:10:04,VALID,915.052,VALID,0,VALID,97.29,VALID,0,VALID,19.3728,VALID,6,VALID,0,
2013-12-11, 03:11:04,VALID,915.043,VALID,0,VALID,97.3053,VALID,0,VALID,19.3728,VALID,8,VALID,0,
2013-12-11, 03:12:04,VALID,915.023,VALID,0,VALID,97.2977,VALID,0,VALID,19.3323,VALID,344,VALID,0,
2013-12-11, 03:13:04,VALID,915.058,VALID,0,VALID,97.2824,VALID,0,VALID,19.3923,VALID,13,VALID,0,
2013-12-11, 03:14:04,VALID,915.022,VALID,0,VALID,97.2748,VALID,0,VALID,19.3728,VALID,15,VALID,0,
2013-12-11, 03:15:04,VALID,915.059,VALID,0,VALID,97.2595,VALID,0,VALID,19.3908,VALID,348,VALID,0,
2013-12-11, 03:16:04,VALID,915.029,VALID,0,VALID,97.29,VALID,0,VALID,19.4118,VALID,335,VALID,0,
2013-12-11, 03:17:04,VALID,915.041,VALID,0,VALID,97.29,VALID,0,VALID,19.3728,VALID,18,VALID,0,
2013-12-11, 03:18:04,VALID,915.04,VALID,0.2,VALID,97.29,VALID,0,VALID,19.3728,VALID,15,VALID,0,
2013-12-11, 03:19:04,VALID,915.022,VALID,0,VALID,97.2824,VALID,0,VALID,19.3908,VALID,354,VALID,0,
2013-12-11, 03:20:04,VALID,915.025,VALID,0,VALID,97.29,VALID,0,VALID,19.4313,VALID,3,VALID,0,
2013-12-11, 03:21:04,VALID,915.002,VALID,0,VALID,97.29,VALID,0,VALID,19.3923,VALID,325,VALID,0,
2013-12-11, 03:22:04,VALID,914.998,VALID,0,VALID,97.29,VALID,0,VALID,19.3728,VALID,357,VALID,0,
2013-12-11, 03:23:04,VALID,914.978,VALID,0,VALID,97.29,VALID,0,VALID,19.4118,VALID,15,VALID,0,
2013-12-11, 03:24:04,VALID,914.992,VALID,0,VALID,97.2672,VALID,0,VALID,19.4313,VALID,16,VALID,0,
2013-12-11, 03:25:04,VALID,914.997,VALID,0,VALID,97.3053,VALID,0,VALID,19.4313,VALID,319,VALID,0,
2013-12-11, 03:26:04,VALID,915.004,VALID,0,VALID,97.3053,VALID,0,VALID,19.3923,VALID,299,VALID,0,
2013-12-11, 03:27:04,VALID,914.998,VALID,0,VALID,97.3129,VALID,0,VALID,19.3923,VALID,7,VALID,0,
2013-12-11, 03:28:04,VALID,915.015,VALID,0,VALID,97.29,VALID,0,VALID,19.3923,VALID,11,VALID,0,
2013-12-11, 03:29:04,VALID,915.03,VALID,0,VALID,97.2977,VALID,0,VALID,19.4118,VALID,6,VALID,0,
2013-12-11, 03:30:04,VALID,915.001,VALID,0,VALID,97.3053,VALID,0,VALID,19.3908,VALID,3,VALID,0,
2013-12-11, 03:31:04,VALID,914.998,VALID,0,VALID,97.2824,VALID,0,VALID,19.3728,VALID,1,VALID,0,
2013-12-11, 03:32:04,VALID,915.007,VALID,0,VALID,97.3053,VALID,0,VALID,19.3338,VALID,3,VALID,0,
2013-12-11, 03:33:04,VALID,914.983,VALID,0,VALID,97.2977,VALID,0,VALID,19.3338,VALID,351,VALID,0,
2013-12-11, 03:34:04,VALID,914.982,VALID,0,VALID,97.3053,VALID,0,VALID,19.3728,VALID,331,VALID,0,
2013-12-11, 03:35:04,VALID,914.986,VALID,0,VALID,97.29,VALID,0,VALID,19.3923,VALID,7,VALID,0,
2013-12-11, 03:36:04,VALID,914.952,VALID,0,VALID,97.3129,VALID,0,VALID,19.3533,VALID,352,VALID,0,
2013-12-11, 03:37:04,VALID,914.975,VALID,0,VALID,97.3053,VALID,0,VALID,19.3533,VALID,340,VALID,0,
2013-12-11, 03:38:04,VALID,914.98,VALID,0,VALID,97.29,VALID,0,VALID,19.3533,VALID,358,VALID,0,
2013-12-11, 03:39:04,VALID,914.981,VALID,0,VALID,97.3053,VALID,0,VALID,19.3728,VALID,330,VALID,0,
2013-12-11, 03:40:04,VALID,914.969,VALID,0,VALID,97.2977,VALID,0,VALID,19.3338,VALID,309,VALID,0,
2013-12-11, 03:41:04,VALID,915.006,VALID,0,VALID,97.3053,VALID,0,VALID,19.3533,VALID,346,VALID,0,
2013-12-11, 03:42:04,VALID,914.944,VALID,0,VALID,97.2977,VALID,0,VALID,19.3143,VALID,22,VALID,0,
2013-12-11, 03:43:04,VALID,914.98,VALID,0,VALID,97.3053,VALID,0,VALID,19.3533,VALID,307,VALID,0,
2013-12-11, 03:44:04,VALID,914.958,VALID,0,VALID,97.2977,VALID,0,VALID,19.3338,VALID,328,VALID,0,
2013-12-11, 03:45:04,VALID,914.959,VALID,0,VALID,97.2748,VALID,0,VALID,19.3533,VALID,345,VALID,0,
2013-12-11, 03:46:04,VALID,914.953,VALID,0,VALID,97.29,VALID,0,VALID,19.3338,VALID,351,VALID,0,
2013-12-11, 03:47:04,VALID,914.958,VALID,0,VALID,97.29,VALID,0,VALID,19.3338,VALID,351,VALID,0,
2013-12-11, 03:48:04,VALID,914.978,VALID,0,VALID,97.29,VALID,0,VALID,19.3352,VALID,356,VALID,0,
2013-12-11, 03:49:04,VALID,914.947,VALID,0,VALID,97.29,VALID,0,VALID,19.2948,VALID,352,VALID,0,
2013-12-11, 03:50:04,VALID,914.96,VALID,0,VALID,97.3053,VALID,0,VALID,19.3143,VALID,353,VALID,0,
2013-12-11, 03:51:04,VALID,914.97,VALID,0,VALID,97.3129,VALID,0,VALID,19.3338,INVALID,360,VALID,0,
2013-12-11, 03:52:04,VALID,914.978,VALID,0,VALID,97.2824,VALID,0,VALID,19.3338,VALID,346,VALID,0,
2013-12-11, 03:53:04,VALID,914.991,VALID,0,VALID,97.2824,VALID,0,VALID,19.2948,VALID,339,VALID,0,
2013-12-11, 03:54:04,VALID,914.985,VALID,0,VALID,97.2977,VALID,0,VALID,19.2753,VALID,296,VALID,0,
2013-12-11, 03:55:04,VALID,914.985,VALID,0,VALID,97.2748,VALID,0,VALID,19.2948,VALID,356,VALID,0,
2013-12-11, 03:56:04,VALID,914.969,VALID,0,VALID,97.29,VALID,0,VALID,19.3143,VALID,350,VALID,0,
2013-12-11, 03:57:04,VALID,914.969,VALID,0,VALID,97.2672,VALID,0,VALID,19.3338,VALID,12,VALID,0,
2013-12-11, 03:58:04,VALID,914.96,VALID,0,VALID,97.2672,VALID,0,VALID,19.3338,VALID,12,VALID,0,
2013-12-11, 03:59:04,VALID,914.946,VALID,0,VALID,97.29,VALID,0,VALID,19.3323,VALID,12,VALID,0,
2013-12-11, 04:00:04,VALID,914.943,VALID,0,VALID,97.2824,VALID,0,VALID,19.2933,VALID,16,VALID,0,
2013-12-11, 04:01:04,VALID,914.944,VALID,0,VALID,97.2672,VALID,0,VALID,19.3143,VALID,351,VALID,0,